GW1980 Weather Reports


time (UTC)temp
C
wind
direction
speed
KPH
gust
KPH
rain 1hr
cm
rain 24hr
cm
rain mn
cm
humidity
%
barometer
mb
20260509222950 32 352 1.6 6.4 0.00 0.00 0.00 40 1008.1
20260509221448 32 117 4.8 14.5 0.00 0.00 0.00 42 1008.1
20260509215952 32 146 3.2 11.3 0.00 0.00 0.00 43 1008.2
20260509214448 32 165 1.6 8.0 0.00 0.00 0.00 41 1008.4
20260509211448 31 170 3.2 8.0 0.00 0.00 0.00 47 1008.7
20260509205954 32 166 0.0 9.7 0.00 0.00 0.00 41 1008.9
20260509204447 31 26 1.6 8.0 0.00 0.00 0.00 43 1009.1
20260509202950 31 167 0.0 3.2 0.00 0.00 0.00 46 1009.3
20260509195951 30 356 3.2 11.3 0.00 0.00 0.00 45 1009.6
20260509192948 30 54 3.2 9.7 0.00 0.10 0.00 45 1010.0
20260509191446 30 288 3.2 8.0 0.00 0.10 0.00 50 1010.1
20260509184447 29 13 4.8 11.3 0.00 0.10 0.00 52 1010.3
20260509182950 28 316 4.8 9.7 0.00 0.10 0.00 56 1010.5
20260509181448 28 285 1.6 9.7 0.00 0.10 0.00 54 1010.7
20260509175951 28 242 3.2 12.9 0.00 0.10 0.00 60 1011.0
20260509174446 28 264 1.6 11.3 0.00 0.10 0.00 58 1011.0
20260509172948 27 302 3.2 8.0 0.00 0.10 0.00 60 1011.4
20260509171446 27 330 3.2 9.7 0.00 0.10 0.00 58 1011.4
20260509165953 27 316 3.2 9.7 0.00 0.10 0.00 56 1011.5
20260509164447 26 269 3.2 9.7 0.00 0.10 0.00 59 1011.6
20260509162950 26 321 3.2 8.0 0.00 0.10 0.00 59 1011.7
20260509155952 25 304 1.6 6.4 0.00 0.10 0.00 70 1011.8
20260509152949 25 319 1.6 8.0 0.00 0.10 0.00 72 1011.7
20260509144447 23 338 6.4 14.5 0.00 0.10 0.00 77 1011.8
20260509141447 23 330 6.4 11.3 0.00 0.10 0.00 78 1011.7
20260509135951 23 338 6.4 14.5 0.00 0.10 0.00 78 1011.6
20260509134447 22 352 4.8 12.9 0.00 0.10 0.00 83 1011.6
20260509131447 20 1 6.4 12.9 0.00 0.10 0.00 88 1011.2
20260509125952 19 8 3.2 8.0 0.00 0.10 0.00 91 1011.1
20260509124447 19 29 4.8 8.0 0.00 0.10 0.00 91 1011.0
20260509122949 19 16 1.6 4.8 0.00 0.10 0.00 92 1010.9
20260509121447 18 40 1.6 6.4 0.00 0.10 0.00 96 1010.9
20260509115952 18 47 1.6 6.4 0.00 0.10 0.00 95 1011.0
20260509114447 18 25 0.0 0.0 0.00 0.20 0.00 95 1011.3
20260509112950 18 300 0.0 4.8 0.00 0.20 0.00 95 1011.0
20260509111447 18 153 1.6 4.8 0.00 0.20 0.00 95 1010.7
20260509105954 19 298 0.0 4.8 0.00 0.20 0.00 93 1010.6
20260509104447 20 53 3.2 6.4 0.00 0.20 0.00 93 1010.1
20260509101448 20 47 6.4 17.7 0.00 0.20 0.00 92 1009.9
20260509095952 20 146 11.3 30.6 0.00 0.20 0.00 92 1008.8
20260509094447 20 304 1.6 8.0 0.00 0.20 0.00 94 1008.2
20260509092949 20 238 4.8 20.9 0.00 0.20 0.00 95 1007.4
20260509091447 20 165 12.9 27.4 0.00 0.20 0.00 95 1007.5
20260509085952 20 194 11.3 20.9 0.00 0.20 0.00 95 1007.8
20260509084447 20 210 6.4 12.9 0.00 0.20 0.00 94 1008.9
20260509082950 20 184 4.8 9.7 0.00 0.20 0.00 94 1009.2
20260509081447 20 192 8.0 17.7 0.00 0.20 0.00 94 1009.4
20260509075951 20 160 8.0 16.1 0.00 0.20 0.00 95 1009.6
20260509074447 20 172 8.0 16.1 0.00 0.20 0.00 94 1010.3
20260509072950 20 176 1.6 4.8 0.00 0.20 0.00 93 1011.4
20260509071447 20 148 4.8 9.7 0.00 0.20 0.00 93 1011.8
20260509065950 20 77 6.4 14.5 0.00 0.20 0.00 94 1012.8
20260509061445 18 355 3.2 6.4 0.00 0.20 0.00 97 1012.4
20260509055951 18 53 3.2 9.7 0.00 0.20 0.00 96 1011.9
20260509054447 19 160 0.0 0.0 0.00 0.20 0.00 95 1010.9
20260509052950 19 160 0.0 1.6 0.00 0.20 0.00 95 1011.0
20260509051447 20 88 0.0 3.2 0.00 0.20 0.00 94 1011.3
20260509045953 20 84 0.0 1.6 0.00 0.20 0.00 93 1011.2
20260509044447 20 96 0.0 3.2 0.00 0.20 0.20 92 1010.9
20260509042950 20 153 1.6 6.4 0.00 0.20 0.20 91 1010.4
20260509041448 21 172 3.2 8.0 0.00 0.20 0.20 91 1010.4
20260509035952 21 181 4.8 11.3 0.00 0.20 0.20 90 1010.1
20260509034447 21 203 4.8 12.9 0.00 0.20 0.20 90 1010.1
20260509032950 21 146 4.8 22.5 0.00 0.20 0.20 89 1009.9
20260509031448 21 187 6.4 14.5 0.00 0.20 0.20 88 1010.0
20260509025952 21 176 3.2 11.3 0.00 0.20 0.20 88 1009.6
20260509024447 22 156 3.2 8.0 0.00 0.20 0.20 88 1009.5
20260509022950 22 161 6.4 9.7 0.00 0.20 0.20 87 1009.2
20260509021447 22 169 6.4 12.9 0.00 0.20 0.20 86 1009.2
20260509015952 22 153 3.2 8.0 0.00 0.20 0.20 86 1009.3
20260509014447 22 175 4.8 9.7 0.00 0.20 0.20 85 1009.3
20260509012950 22 183 1.6 6.4 0.00 0.20 0.20 85 1009.2
20260509011447 22 153 4.8 11.3 0.00 0.20 0.20 84 1008.9
20260509005952 22 160 4.8 9.7 0.00 0.20 0.20 82 1008.6
20260509004447 23 160 1.6 9.7 0.00 0.20 0.20 81 1008.6
20260509002951 23 132 1.6 9.7 0.00 0.20 0.20 80 1008.5
20260509001447 23 145 3.2 9.7 0.00 0.20 0.20 80 1008.7
20260508235952 23 147 3.2 8.0 0.00 0.20 0.20 79 1008.8
20260508234447 23 195 4.8 11.3 0.00 0.20 0.20 78 1008.9
20260508232950 23 169 6.4 12.9 0.00 0.20 0.20 77 1008.8
20260508231447 24 189 3.2 8.0 0.00 0.20 0.20 77 1008.8
20260508225952 24 200 6.4 14.5 0.00 0.20 0.20 76 1008.7
20260508224447 23 184 9.7 17.7 0.00 0.20 0.20 78 1008.7